CAPE
0 0 0 0 0 0 4 37 0 52 46 11 30 134 52 342 536 706 717 548 565 633 797 712 389 305 33 0 0 0 0 0 0 0 0 0 0 0 0 0 0 0 3 6
0 7 0 0 0 6 11 17 9 113 21 122 43 192 29 150 244 445 572 590 615 653 678 777 907 485 161 1 0 0 0 0 0 0 0 0 0 0 0 0 0 0 2 10
0 0 0 0 22 25 0 5 1 20 23 231 235 150 11 164 350 586 801 742 576 462 347 342 479 917 382 47 0 0 0 0 0 0 0 0 0 0 0 0 3 12 7 12
1 3 0 0 7 11 15 0 6 28 61 233 1 161 0 110 283 313 318 284 277 274 251 13 4 226 814 267 25 0 0 4 0 0 0 0 0 0 0 0 0 0 1 6
4 1 11 0 0 0 39 0 32 45 78 195 47 11 4 0 165 354 385 485 417 329 183 131 722 915 1329 671 240 0 344 332 0 1 4 0 0 0 0 0 0 0 19 1
0 2 0 0 0 0 0 14 44 23 1 24 35 0 0 80 67 180 400 531 493 294 180 377 982 1195 1239 773 323 50 578 478 73 86 97 8 0 11 0 0 0 2 2 12
0 0 0 0 0 28 4 139 57 118 103 43 11 85 68 21 65 188 434 579 469 202 171 222 764 1017 906 648 268 356 600 633 492 214 270 92 47 83 56 32 2 0 1 13
0 7 0 0 0 3 65 58 2 39 39 86 43 32 138 92 387 506 556 621 571 239 165 346 651 959 851 682 484 654 621 1005 663 379 466 307 105 22 38 92 13 0 0 9
0 0 0 0 0 0 37 67 107 37 154 18 66 98 8 10 114 439 582 613 650 333 62 187 592 858 1024 920 778 624 739 837 607 617 640 662 299 101 73 153 238 43 1 6
0 0 0 0 0 0 0 0 3 51 21 19 19 20 110 161 106 219 586 595 392 69 11 80 512 946 1108 1176 1011 742 740 794 951 965 969 856 571 324 241 309 337 322 129 137
0 0 0 0 0 0 46 54 0 148 20 49 99 133 120 241 266 419 517 594 237 3 0 224 466 795 1045 1126 1113 1076 952 924 1045 1221 1189 864 584 480 418 391 367 343 262 182
0 0 0 0 0 0 0 2 16 56 30 1 9 202 66 566 448 499 559 549 203 1 47 101 360 775 1076 1195 1219 1446 1316 1041 1079 1053 1037 956 816 680 482 313 364 447 331 207
1 2 19 19 36 102 67 97 60 57 146 146 255 176 124 541 677 801 617 566 86 56 10 27 106 480 802 1343 1408 1367 1475 1364 1267 1103 894 776 719 432 119 114 264 265 184 200
136 232 20 45 5 1 0 2 9 23 18 160 118 110 344 553 496 590 709 547 112 118 119 96 226 332 673 1197 1392 1421 1427 1277 1155 935 717 549 262 0 2 62 182 292 346 383
787 157 3 0 0 0 0 0 10 4 56 126 153 324 741 679 686 563 624 496 67 104 224 263 272 331 685 1010 1270 1191 1188 1150 928 714 367 245 2 3 125 267 334 490 638 408
357 137 84 38 43 8 36 54 5 46 130 193 284 302 453 418 424 460 523 470 214 252 192 393 553 585 588 800 813 975 932 861 603 242 125 3 26 75 183 251 523 543 80 0
192 324 284 184 257 83 83 129 10 59 103 412 432 365 455 344 391 350 370 343 427 404 380 399 464 719 816 732 711 707 547 399 237 185 104 21 7 32 203 295 202 0 0 1
273 390 276 289 278 188 218 299 14 99 124 408 449 411 360 387 425 236 365 591 626 549 575 636 589 859 930 749 559 362 244 217 207 166 182 40 33 46 67 19 0 0 1 0
545 226 32 119 193 162 179 677 490 339 124 618 707 682 620 686 480 803 839 779 692 817 796 785 662 824 821 563 390 276 198 164 179 294 174 0 0 0 0 0 0 0 0 1
325 285 181 145 343 118 909 599 516 461 201 1087 923 803 716 593 302 269 839 613 652 713 858 957 754 773 670 506 424 352 294 323 249 159 32 0 0 0 0 0 0 0 0 0
257 357 182 175 309 370 642 532 524 222 1362 1041 920 708 533 426 456 641 859 850 767 921 791 1058 922 689 764 599 531 608 480 437 183 27 0 0 0 0 0 0 0 0 0 0
83 190 183 447 303 312 676 610 728 1620 1052 754 612 459 512 511 561 667 753 823 840 927 1184 1221 1061 957 956 734 741 651 613 249 42 0 0 0 0 0 0 0 0 0 0 1
93 582 1163 800 683 767 922 920 828 857 701 510 664 522 498 514 569 634 857 943 893 1185 1257 1403 1031 1106 867 693 511 638 497 105 0 0 0 0 0 0 0 0 1 1 0 0
479 621 114 488 274 262 243 344 545 598 750 697 497 456 518 497 526 648 705 704 742 995 1200 1082 969 953 704 414 304 358 114 0 0 0 0 0 0 0 0 0 0 0 0 0
682 1014 547 194 227 391 356 599 782 653 719 612 645 532 483 544 756 885 762 666 853 1072 1067 1104 940 699 422 112 45 1 0 0 0 0 0 0 0 0 0 0 0 0 0 0
177 256 191 153 848 1044 732 761 819 646 666 643 533 378 508 614 749 893 857 1040 992 1057 1137 1009 777 546 34 1 0 0 0 0 0 0 0 0 0 0 0 0 0 0 0 0
CIN
0 0 0 0 0 0 -18 -24 -1 -10 -25 -62 -12 -4 -6 -2 -5 -11 -10 -8 -11 -3 -3 -3 -17 -72 -179 0 0 0 0 0 0 0 0 0 0 0 0 0 0 0 0 -2
0 -12 0 0 0 -8 -35 -4 -7 -7 -33 -39 -29 -5 -15 -8 -3 -3 -4 -9 -3 -6 -6 -2 -3 -83 -167 -48 0 0 0 0 0 0 0 0 0 0 0 0 0 0 -1 -1
0 0 0 0 -7 -9 -5 -5 -5 -18 -12 -7 -7 -86 -6 -4 -4 -3 -5 -6 -3 -4 -16 -14 -9 -32 -140 -312 0 0 0 0 0 0 0 0 0 0 0 0 -1 -2 -1 -1
-5 -8 0 0 -22 -31 -39 0 -2 -5 -6 -6 -1 -20 0 -6 -3 -4 -3 -9 -28 -35 -38 -54 -70 -46 -109 -207 -303 0 -1 -70 0 0 0 0 0 0 0 0 0 0 0 -1
-4 -7 -6 0 0 0 -7 0 -12 -105 -48 -8 -14 -5 -65 0 -4 -2 -2 -27 -34 -35 -70 -98 -77 -61 -77 -167 -225 0 -94 -51 0 -11 -98 0 0 0 0 0 0 -1 -67 -4
0 -1 0 0 0 0 0 -6 -90 -79 -2 -25 -51 0 0 -17 -5 -6 -4 -25 -42 -46 -58 -84 -116 -85 -107 -149 -210 -245 -66 -43 -121 -92 -90 -131 0 -31 0 0 0 -2 -2 -1
0 0 0 0 0 -11 -23 -14 -11 -10 -4 -12 -12 -10 -22 -35 -43 -20 -3 -25 -42 -36 -75 -77 -68 -88 -135 -161 -213 -127 -59 -29 -20 -45 -42 -76 -86 -76 -66 -53 -2 0 -2 -1
-2 -14 0 0 0 -4 -14 -5 -33 -11 -5 -11 -46 -20 -12 -20 -6 -16 -4 -22 -50 -59 -64 -86 -77 -69 -100 -136 -152 -60 -47 -1 -5 -22 -9 -29 -70 -61 -41 -42 -44 0 0 0
-1 -1 0 0 0 0 -12 -8 -17 -35 -7 -95 -8 -61 -143 -65 -4 -4 -3 -10 -46 -55 -82 -56 -69 -67 -46 -80 -80 -71 -2 -1 -6 -8 -5 -12 -36 -52 -25 -19 -9 -13 -1 0
0 0 0 0 0 0 0 0 -1 -7 -7 -11 -10 -97 -53 -3 -37 -19 -4 -2 -27 -41 -88 -60 -49 -69 -33 -25 -28 -20 -2 -1 -2 -2 -2 -2 -10 -23 -19 -5 -2 -1 -4 -3
0 0 0 0 0 0 -26 -10 0 -5 -28 -5 -32 -10 -97 -3 -19 -29 -3 -10 -21 -5 0 -42 -20 -38 -20 -5 -2 -3 -2 -1 -1 -1 -2 -1 -1 -2 -4 -1 -1 -2 -1 -1
0 0 0 0 0 0 0 -4 -6 -6 -5 -1 -10 -8 -100 -4 -16 -29 -10 -3 -53 -9 -49 -24 -52 -35 -20 -5 -2 -3 -1 -2 -3 -1 -2 -2 -1 -1 -2 -1 -1 -1 -1 -2
-52 -3 -3 -11 -10 -27 -3 -8 -21 -26 -23 -7 -6 -27 -12 -5 -3 -3 -8 -14 -13 -47 -75 -46 -17 -20 -12 -7 -13 -3 -2 -1 -2 -5 -2 -2 -2 -4 -14 -21 -4 0 -2 -1
-25 -11 -31 -8 -18 -1 0 -16 -47 -44 -39 -10 -8 -8 -4 -3 -17 -1 -3 -4 -13 -19 -59 -46 -8 -4 -22 -11 -11 -8 -4 -2 -3 -1 -2 -3 -1 0 -1 -13 -1 -1 -1 -1
-17 -3 -1 0 0 0 0 0 -25 -36 -6 -2 -4 -5 -7 -5 -7 -4 -11 -3 -40 -6 -6 -2 -3 -13 -11 -18 -11 -6 -1 -6 -1 -2 -2 -2 -2 0 -2 -2 -1 -1 -1 -1
-16 -7 -16 -32 -29 -50 -45 -21 -64 -19 -1 -3 -2 -5 -4 -5 -2 -4 -2 -8 -6 -3 -4 -3 -4 -4 -17 -29 -25 -17 -11 -9 -9 -10 -4 -3 -2 -2 -2 -2 -1 -1 -10 0
-14 -6 -5 -5 -4 -23 -41 -6 -19 -9 -5 -2 -3 -8 -3 -10 -3 -4 -4 -3 -5 -5 -5 -3 -3 -1 -17 -30 -37 -21 -25 -31 -30 -5 -5 -3 -2 -2 -1 -1 -3 0 0 -1
-15 -17 -10 -4 -3 -3 -39 -42 -64 -46 -37 -4 -6 -10 -13 -3 -4 -4 -4 -24 -15 -6 -4 -3 -4 -3 -30 -28 -27 -47 -43 -37 -15 -2 -3 -2 -2 -3 -10 -15 0 0 -1 0
-30 -49 -67 -19 -5 -5 -2 -48 -39 -41 -41 -15 -27 -24 -20 -9 -24 -24 -37 -26 -13 -13 -4 -3 -3 -6 -38 -38 -56 -46 -26 -13 -1 -3 -2 0 0 0 0 0 0 0 0 -1
-56 -63 -61 -13 -2 -4 -30 -80 -68 -54 -10 -37 -33 -31 -35 -35 -6 -4 -12 -14 -2 -12 -3 -3 -3 -20 -47 -52 -41 -27 -7 -2 -3 -3 -23 0 0 0 0 0 0 0 0 0
-39 -43 -22 -8 -4 -4 -56 -71 -61 -37 -24 -55 -46 -38 -40 -32 -19 -11 -3 -2 -3 -2 -7 -2 -2 -6 -16 -27 -16 -1 -3 -2 -32 -73 0 0 0 0 0 0 0 0 0 0
-61 -28 -9 -8 -14 -3 -61 -42 -34 -25 -47 -46 -61 -67 -41 -30 -22 -7 -4 -8 -7 -2 -3 -3 -2 -1 -2 -2 -1 -1 -2 -29 -74 0 0 0 0 0 0 0 0 -1 0 -1
-70 -34 -25 -20 -9 -42 -50 -58 -55 -67 -64 -82 -47 -44 -32 -24 -9 -3 -2 -1 -7 -7 -7 -2 -3 -5 -10 -42 -29 -3 -16 -33 0 0 0 0 0 0 0 0 -1 -2 0 0
-53 -57 -94 -54 -49 -48 -62 -87 -93 -86 -51 -39 -36 -34 -26 -18 -7 -2 -1 -3 -12 -12 -24 -35 -9 -5 -36 -49 -36 -26 -40 0 0 0 0 0 0 0 0 0 0 0 0 0
-6 -22 -27 -76 -47 -38 -15 -30 -58 -48 -31 -32 -29 -26 -19 -7 -3 -2 -2 -1 -2 -11 -11 -16 -4 -14 -25 -65 -81 -63 0 0 0 0 0 0 0 0 0 0 0 0 0 0
-10 -5 -46 -31 -16 -24 -17 -7 -38 -31 -16 -23 -38 -27 -18 -15 -2 -1 -1 -2 -1 -1 -1 -4 -13 -22 -101 -30 0 0 0 0 0 0 0 0 0 0 0 0 0 0 0 0
Wind_Speed
15 10 16 15 12 10 8 27 20 23 25 4 25 19 22 21 19 19 17 18 17 16 11 6 5 5 6 6 5 6 8 10 10 12 13 15 12 13 13 13 15 16 16 18
14 10 19 12 7 16 14 19 28 23 21 17 21 13 17 19 19 21 22 21 20 19 17 12 5 5 4 5 6 5 7 9 11 12 13 14 15 15 16 16 17 16 16 16
13 14 13 8 7 13 17 28 26 21 8 13 23 19 17 17 20 22 22 21 23 25 24 22 15 3 4 5 6 6 7 9 11 12 13 14 14 14 14 15 15 16 16 15
11 14 8 9 3 22 20 27 14 22 7 19 17 17 18 15 21 23 24 25 27 27 28 29 23 14 6 7 8 9 9 10 10 11 12 14 16 19 22 18 19 18 16 15
16 7 6 7 22 24 13 11 25 8 17 22 17 27 20 19 25 23 23 24 26 27 29 32 31 26 14 12 10 10 10 10 10 10 10 13 16 18 19 20 19 16 13 14
25 28 14 16 15 6 8 5 12 2 17 12 13 28 18 19 26 25 23 23 26 28 30 30 29 26 20 16 13 11 11 10 10 9 10 12 16 18 19 20 18 16 15 14
31 23 13 3 14 13 18 18 23 20 22 26 29 19 21 24 27 25 22 23 26 28 29 30 28 25 20 17 14 12 11 11 9 9 9 11 13 15 16 16 17 18 16 16
22 4 9 9 11 4 3 23 19 13 29 30 19 17 22 27 21 23 20 23 25 28 29 29 27 23 19 17 13 12 11 9 9 8 8 10 12 12 13 13 17 16 15 16
19 9 11 15 12 10 14 11 6 29 25 14 26 23 28 8 25 24 21 22 24 25 26 25 24 23 20 15 12 12 10 11 10 8 8 9 11 12 12 13 13 13 14 14
11 14 11 9 7 5 6 10 15 9 18 26 22 23 19 29 29 28 22 23 23 23 25 25 24 24 19 15 12 11 12 12 10 9 8 8 9 10 10 10 9 11 12 12
10 9 11 11 5 5 5 6 10 10 22 22 16 22 28 31 27 26 23 23 23 24 25 24 24 23 19 15 12 10 11 12 13 11 9 9 9 10 10 8 8 8 10 10
7 13 8 6 12 10 15 26 27 26 28 28 25 23 33 24 27 25 22 22 24 23 25 26 25 22 19 16 14 11 9 10 15 15 12 9 10 10 10 9 9 9 9 9
9 9 10 19 22 20 11 20 23 13 6 8 10 21 22 26 28 26 24 23 19 22 25 25 25 23 20 17 14 12 10 7 10 13 12 11 12 12 12 12 12 11 11 11
12 15 23 23 23 21 23 17 15 15 11 24 22 33 32 31 30 26 20 20 21 21 23 24 23 23 21 18 16 15 13 11 10 10 13 14 14 14 14 15 14 13 14 15
14 22 23 24 23 21 19 17 16 12 13 21 27 28 31 29 28 26 22 21 20 16 19 21 21 20 18 18 17 15 14 14 13 14 13 13 14 12 13 15 15 16 18 17
15 23 23 24 13 16 14 15 16 14 18 18 27 19 27 27 26 25 23 20 15 19 20 19 17 16 17 16 16 16 15 15 14 14 14 14 12 14 17 14 15 17 19 19
23 23 22 23 13 22 2 12 19 23 22 24 24 29 28 29 26 26 20 21 20 21 19 17 16 13 14 14 15 15 15 14 15 14 14 16 16 14 15 17 18 18 18 18
22 21 23 23 25 2 13 18 20 20 19 19 22 25 27 28 28 25 20 23 23 23 20 16 13 12 12 12 13 15 14 14 14 15 16 16 17 18 17 17 17 17 18 18
20 23 24 22 15 26 15 20 20 23 25 23 24 27 29 29 28 30 22 22 23 23 20 17 14 10 10 10 12 13 14 14 14 17 17 17 17 16 16 16 17 17 16 16
15 16 17 14 19 23 16 17 20 22 18 24 27 28 30 30 29 26 30 26 26 25 17 17 13 10 8 9 9 11 12 13 15 17 17 17 18 16 16 17 17 16 15 15
10 13 11 14 16 17 17 19 20 20 22 26 28 28 30 31 28 27 25 23 24 25 19 14 11 8 8 9 8 10 13 15 17 17 17 17 17 16 16 17 16 15 15 17
16 16 14 13 19 18 20 18 23 22 25 26 27 29 29 28 28 27 28 28 25 22 16 12 10 9 10 9 11 13 15 18 16 17 16 16 16 16 17 16 16 16 17 13
19 18 19 18 20 18 18 21 21 21 23 25 26 28 27 28 29 29 29 28 27 23 19 12 10 10 12 10 12 15 17 17 16 17 16 16 16 16 16 15 15 14 13 15
14 16 17 23 15 20 21 20 18 21 23 23 24 25 27 29 29 29 29 28 26 23 19 14 11 11 11 14 17 21 18 19 19 17 16 16 16 15 15 14 14 15 16 17
19 13 19 24 23 19 16 18 21 23 22 23 25 27 28 28 28 29 28 25 24 20 17 15 13 13 14 14 18 22 16 18 18 17 17 15 13 15 14 14 17 16 16 18
20 21 20 25 24 21 22 21 23 22 23 25 27 29 29 29 28 28 26 25 22 19 17 15 15 15 16 16 16 17 13 16 16 14 11 12 15 13 13 14 13 9 11 12
Wind_Direction
173 195 320 281 253 215 148 359 281 14 10 104 20 48 35 54 68 62 61 52 48 45 52 83 85 89 97 89 88 84 56 54 58 63 95 72 82 59 53 44 35 31 28 26
185 159 333 232 189 324 265 300 343 17 28 46 20 53 47 51 57 50 46 44 44 45 44 43 75 81 108 87 82 87 69 68 73 85 75 55 50 44 33 30 26 27 25 30
194 313 29 181 172 320 44 342 359 22 55 65 31 35 21 63 59 54 46 47 37 34 31 30 27 90 108 96 91 96 88 78 85 74 63 49 50 44 40 36 33 32 29 32
171 352 92 188 267 308 3 351 39 12 81 25 43 23 245 85 64 41 34 28 18 22 24 21 24 28 82 89 86 100 96 95 93 84 69 47 35 24 14 24 23 24 28 34
192 143 69 149 335 320 24 45 4 251 253 22 32 13 18 239 35 34 31 26 20 19 16 15 18 24 69 73 78 97 87 91 95 89 69 47 32 24 23 22 26 32 43 46
221 256 343 212 313 83 215 208 41 322 325 41 36 357 28 38 13 17 25 24 20 16 18 22 28 33 49 58 70 91 85 89 100 82 59 39 26 24 21 21 30 38 41 42
248 218 210 139 212 2 290 255 339 7 9 2 6 26 17 6 7 18 22 23 20 18 18 18 26 36 43 54 66 79 84 75 87 78 59 44 39 32 29 35 34 31 39 37
231 204 184 160 179 218 101 351 17 6 342 344 20 35 12 9 33 34 34 27 22 16 17 19 23 32 40 51 67 74 76 68 74 74 61 50 41 42 38 45 34 38 39 36
232 353 0 332 1 21 8 18 182 330 293 21 337 14 2 226 23 26 26 25 24 27 27 27 34 30 31 46 70 73 78 57 70 70 57 60 46 41 41 38 42 48 39 39
333 302 0 19 28 160 165 219 3 21 2 344 293 8 23 353 1 6 21 19 22 24 23 20 25 24 32 47 63 69 60 55 59 64 66 69 53 51 45 46 48 43 38 39
142 5 355 6 63 123 61 189 313 34 357 359 343 353 345 347 4 9 16 19 19 18 20 21 20 25 34 46 63 64 64 50 54 51 64 64 50 43 44 49 52 46 39 40
113 344 168 161 23 16 339 278 302 319 312 299 340 359 319 16 12 16 16 16 14 18 18 18 20 29 36 39 45 51 68 62 41 41 49 53 43 41 40 46 47 44 41 39
23 31 164 312 261 287 42 318 316 21 85 37 32 6 23 17 13 11 10 13 20 18 16 18 22 26 32 45 43 59 63 73 47 41 44 47 36 39 39 40 41 42 39 33
0 346 285 305 318 329 309 1 25 17 32 346 351 329 345 354 1 7 16 14 15 13 14 16 23 29 38 45 50 45 48 53 53 42 36 31 33 36 34 33 36 35 30 26
353 292 293 300 294 304 332 360 4 25 19 352 344 350 351 360 4 7 10 13 10 19 18 17 19 28 36 40 39 51 44 44 39 37 40 36 31 39 34 27 28 26 23 28
345 280 283 263 359 351 4 4 6 16 2 1 346 5 3 2 6 8 7 12 10 11 6 10 17 23 29 32 32 35 39 41 40 36 36 32 33 23 17 26 27 26 19 24
279 276 296 257 351 320 138 13 346 343 355 356 353 347 355 356 2 2 7 5 6 3 2 3 9 17 21 23 26 30 36 42 37 36 32 23 17 25 22 18 19 21 22 29
286 294 282 296 300 236 6 358 358 358 358 2 357 357 358 359 359 355 0 2 359 357 357 359 8 13 19 26 28 27 36 34 32 29 23 21 16 9 13 14 16 24 22 26
292 289 296 309 334 288 355 356 356 352 346 355 354 352 352 356 358 15 13 6 359 357 356 355 359 12 19 26 28 27 26 26 27 20 16 16 11 11 14 13 16 19 22 26
309 311 317 333 330 325 350 1 360 355 351 358 355 354 352 353 350 353 353 352 353 352 350 352 359 8 16 24 40 35 27 26 18 13 12 11 7 11 12 10 11 19 24 25
331 325 329 329 329 337 351 351 357 351 351 351 352 352 349 347 348 349 351 351 350 351 354 359 1 7 11 17 32 28 18 12 11 13 12 12 9 11 11 10 15 17 19 15
311 319 327 334 324 326 347 350 345 348 348 350 353 352 350 352 353 354 353 350 349 351 355 2 358 6 10 17 8 4 1 356 8 10 9 10 7 5 9 10 12 11 11 14
309 313 315 323 333 343 347 343 347 350 350 353 353 355 355 353 352 353 352 354 355 355 353 1 4 15 349 1 356 352 354 351 1 6 6 7 4 5 8 9 9 9 14 14
317 321 317 320 341 334 338 343 353 352 351 354 357 355 352 349 351 352 351 355 358 0 3 9 9 2 2 351 345 343 348 336 345 356 3 3 1 3 5 5 8 5 4 5
329 329 320 318 320 330 344 347 348 348 352 353 354 353 351 350 350 350 350 354 357 2 6 4 0 358 356 355 351 343 342 336 344 352 355 3 4 1 2 2 358 1 4 4
312 314 313 314 331 330 329 343 344 346 348 349 349 348 348 349 349 350 354 357 359 3 5 3 357 353 351 350 353 353 353 347 350 359 14 6 357 1 0 357 355 0 1 3